Content
SEND FEEDBACK

Daily
Averages
Monthly
Summary
Turkmenistan

ASHGABAT, TURKMENISTAN


Home > Asia > Turkmenistan
Elevation: 775 feet     Latitude: 37 58N     Longitude: 058 20E

WEATHER
 
SELECT A DAY
Number of Records: 177,237;   Date Range: 3/15/97 - 7/26/14
 
SHARE

PRINT THIS DATA

[ ← Previous Day ]
WEATHER ALMANAC - MARCH 18, 2013
[ Next Day → ]
[ °C ]   °F
Weather ElementAverageHighLow
Temperature61.4 °F74 °F (5:00 pm)48.2 °F (7:00 am)
Dewpoint48 °F54 °F (8:00 pm)44 °F (2:00 am)
Humidity61.4 %87 % (6:00 am)33 % (2:00 pm)
Barometer29.72 in29.80 in (1:00 am)29.65 in (3:00 pm)
Wind Speed7.9 mph15.7 mph (11:00 am)
Weather ElementAverage
Visibility6.1 mi
Wind DirectionESE (99.7 °)

Weather ElementTotal
Precipitation---
Heating Degree Days3.9 (Base 65)
Growing Degree Days11.1 (Base 50)
Averaged from 31 records on March 18, 2013
WEATHER CONDITIONS BREAKOUT
WIND DIRECTION BREAKOUT
WEATHER BY HOUR - MARCH 18, 2013
[ °C ]   °F
Local TimeTemperatureDewpointHumidityBarometerVisibilityWind DirectionWind SpeedGust SpeedPrecipitationEventsConditions
1:00 AM55.4 °F44.6 °F67 %29.80 in6.2 miESE (120°)8.9 mphOvercast
2:00 AM55.0 °F44.0 °F55 %29.79 in6.0 miEast (100°)6.7 mphScattered Clouds
2:00 AM53.6 °F44.6 °F72 %29.77 in6.2 miEast (100°)6.7 mphScattered Clouds
3:00 AM53.6 °F44.6 °F72 %29.74 in6.2 miEast (100°)6.7 mphScattered Clouds
4:00 AM51.8 °F46.4 °F82 %29.74 in6.2 miEast (100°)6.7 mphMostly Cloudy
5:00 AM51.0 °F45.0 °F74 %29.75 in6.0 miEast (80°)4.5 mphScattered Clouds
5:00 AM51.8 °F46.4 °F82 %29.71 in6.2 miEast (100°)8.9 mphPartly Cloudy
6:00 AM50.0 °F46.4 °F87 %29.71 in6.2 miEast (80°)6.7 mphPartly Cloudy
7:00 AM48.2 °F44.6 °F87 %29.71 in6.2 miCalmOvercast
8:00 AM49.0 °F46.0 °F84 %29.74 in6.0 miENE (70°)4.5 mphOvercast
8:00 AM53.6 °F46.4 °F77 %29.71 in6.2 miEast (100°)8.9 mphOvercast
9:00 AM55.4 °F46.4 °F72 %29.71 in6.2 miEast (100°)13.4 mphOvercast
10:00 AM59.0 °F46.4 °F63 %29.71 in6.2 miEast (100°)8.9 mphMostly Cloudy
11:00 AM59.0 °F49.0 °F61 %29.73 in6.0 miESE (110°)13.4 mphScattered Clouds
11:00 AM64.4 °F48.2 °F56 %29.71 in6.2 miEast (100°)15.7 mphMostly Cloudy
12:00 PM66.2 °F48.2 °F52 %29.71 in6.2 miESE (110°)13.4 mphMostly Cloudy
1:00 PM68.0 °F48.2 °F49 %29.71 in6.2 miESE (110°)11.2 mphMostly Cloudy
2:00 PM71.0 °F48.0 °F33 %29.68 in6.0 miESE (120°)15.7 mphScattered Clouds
2:00 PM69.8 °F48.2 °F46 %29.68 in6.2 miEast (100°)13.4 mphMostly Cloudy
3:00 PM73.4 °F48.2 °F41 %29.65 in6.2 miESE (110°)13.4 mphMostly Cloudy
4:00 PM73.4 °F48.2 °F41 %29.65 in6.2 miESE (120°)13.4 mphMostly Cloudy
5:00 PM74.0 °F51.0 °F33 %29.66 in6.0 miEast (80°)8.9 mphScattered Clouds
5:00 PM73.4 °F50.0 °F44 %29.68 in6.2 miESE (120°)8.9 mphMostly Cloudy
6:00 PM73.4 °F50.0 °F44 %29.68 in6.2 miESE (110°)6.7 mphMostly Cloudy
7:00 PM71.6 °F51.8 °F50 %29.71 in6.2 miEast (90°)4.5 mphOvercast
8:00 PM67.0 °F54.0 °F52 %29.69 in6.0 miCalmOvercast
8:00 PM68.0 °F51.8 °F56 %29.71 in6.2 miCalmOvercast
9:00 PM64.4 °F51.8 °F64 %29.74 in6.2 miVariable2.2 mphOvercast
10:00 PM62.6 °F50.0 °F63 %29.77 in6.2 miCalmOvercast
11:00 PM57.0 °F51.0 °F73 %29.78 in6.0 miWest (280°)4.5 mphPartly Cloudy
11:00 PM59.0 °F50.0 °F72 %29.77 in6.2 miWest (280°)6.7 mphMostly Cloudy
Hourly data recorded from UTAA, located miles away from Ashgabat, Turkmenistan







STORIES FROM OUR PARTNERS